Oldest pages

Jump to: navigation, search

Showing below up to 100 results in range #1 to #100.

View (previous 100 | next 100) (20 | 50 | 100 | 250 | 500)

  1. Odd‏‎ (06:30, 30 September 2011)
  2. Two-wire servo interface‏‎ (13:32, 31 October 2011)
  3. Two-wire LM35/thermocouple interface‏‎ (14:09, 31 October 2011)
  4. Linux‏‎ (12:56, 21 January 2012)
  5. Template‏‎ (15:48, 25 January 2012)
  6. Cyclone dev board‏‎ (13:23, 1 February 2012)
  7. Nikon D80 wired remote‏‎ (17:03, 18 February 2012)
  8. Windows‏‎ (00:03, 21 February 2012)
  9. Modifying the arduino IDE for 20MHz‏‎ (10:25, 10 March 2012)
  10. Uart connector pinout‏‎ (13:11, 1 June 2012)
  11. Raspberry pi spi kernel‏‎ (08:28, 9 June 2012)
  12. PiPower protocol‏‎ (12:04, 17 July 2012)
  13. PiPower‏‎ (13:55, 17 July 2012)
  14. MPU-6050 sensor connected to Raspberry Pi‏‎ (11:43, 1 October 2012)
  15. SPI SPI‏‎ (15:03, 16 November 2012)
  16. Getting started with rpi serial and BitWizard expansion boards‏‎ (11:30, 4 January 2013)
  17. Annoying bug‏‎ (15:30, 10 January 2013)
  18. Raspberry Pi User Interface with 16 x 2 LCD with a console serial cable‏‎ (12:34, 16 January 2013)
  19. I2c addresses‏‎ (10:33, 31 May 2013)
  20. Bitwizard LCD with LCDPROC‏‎ (12:16, 5 June 2013)
  21. I2c lcd protocol‏‎ (16:43, 4 July 2013)
  22. RPi SPI wheezy‏‎ (17:45, 11 December 2013)
  23. Bcm2835 i2c bug‏‎ (16:27, 11 January 2014)
  24. Rpi power‏‎ (09:11, 1 May 2014)
  25. POWER protocol‏‎ (17:13, 30 May 2014)
  26. Power‏‎ (17:16, 2 June 2014)
  27. Model B+ compatibility‏‎ (14:39, 16 July 2014)
  28. SPI versus I2C protocols‏‎ (14:31, 18 July 2014)
  29. Reducing power consumption of a raspberry Pi‏‎ (12:59, 18 August 2014)
  30. Assembling the rpi+rpi ui case.‏‎ (14:52, 11 September 2014)
  31. Old USB-SATA powerswitch‏‎ (14:45, 28 November 2014)
  32. Firmware upgrade STM32Wifi‏‎ (10:29, 19 January 2015)
  33. SPI connector pinout‏‎ (09:50, 10 March 2015)
  34. Stm32wifi‏‎ (16:45, 15 July 2015)
  35. Connecting FPCs‏‎ (10:58, 2 September 2015)
  36. Temperature sensor example‏‎ (14:48, 7 September 2015)
  37. Blog 06‏‎ (13:16, 16 September 2015)
  38. Blog 07‏‎ (15:13, 16 September 2015)
  39. Blog 08‏‎ (12:00, 17 September 2015)
  40. Blog 09‏‎ (12:58, 21 September 2015)
  41. Blog 05‏‎ (13:33, 21 September 2015)
  42. Blog 01‏‎ (14:07, 21 September 2015)
  43. Blog 04‏‎ (16:52, 21 September 2015)
  44. Blog 02‏‎ (09:08, 22 September 2015)
  45. Bw tool‏‎ (13:25, 21 October 2015)
  46. Blog 10‏‎ (10:47, 26 October 2015)
  47. Blog 11‏‎ (11:27, 26 October 2015)
  48. Blog 12‏‎ (11:47, 26 October 2015)
  49. Raspberry Pi camera extension kit‏‎ (12:07, 2 November 2015)
  50. FTDI ATmega‏‎ (12:12, 2 November 2015)
  51. Relay‏‎ (12:56, 2 November 2015)
  52. Servo‏‎ (12:57, 2 November 2015)
  53. 7FETs‏‎ (17:10, 5 November 2015)
  54. Beginners guide to SPI on Raspberry Pi‏‎ (17:20, 5 November 2015)
  55. General SPI protocol‏‎ (11:28, 6 November 2015)
  56. Thermocouple‏‎ (12:31, 6 November 2015)
  57. FT201X‏‎ (16:47, 6 November 2015)
  58. FT220X‏‎ (16:48, 6 November 2015)
  59. FT221X‏‎ (16:49, 6 November 2015)
  60. FT230X‏‎ (16:49, 6 November 2015)
  61. FT231X‏‎ (16:50, 6 November 2015)
  62. FT240X‏‎ (16:50, 6 November 2015)
  63. FT245RL V1.5‏‎ (16:50, 6 November 2015)
  64. FT312D‏‎ (16:51, 6 November 2015)
  65. FT245RL breakout board‏‎ (16:52, 6 November 2015)
  66. FT2232H breakout board‏‎ (16:52, 6 November 2015)
  67. FTDI serial‏‎ (16:53, 6 November 2015)
  68. FTDI serial 2‏‎ (16:53, 6 November 2015)
  69. Usbio kitt‏‎ (11:45, 11 November 2015)
  70. Usbio ACM sample program‏‎ (11:45, 11 November 2015)
  71. Raspberry Pi LCD program‏‎ (11:45, 11 November 2015)
  72. Raspberry pi expansion system page‏‎ (11:51, 11 November 2015)
  73. LCD‏‎ (11:52, 11 November 2015)
  74. 3FETs‏‎ (11:53, 11 November 2015)
  75. Temperature Interface‏‎ (11:54, 11 November 2015)
  76. Raspberry Juice‏‎ (11:56, 11 November 2015)
  77. 7 Segment‏‎ (11:58, 11 November 2015)
  78. Pushbutton‏‎ (11:59, 11 November 2015)
  79. 16 LEDs‏‎ (11:59, 11 November 2015)
  80. USB-SATA powerswitch‏‎ (12:01, 11 November 2015)
  81. USB-opto‏‎ (12:03, 11 November 2015)
  82. IO Expander‏‎ (12:03, 11 November 2015)
  83. SPI DAC‏‎ (12:04, 11 November 2015)
  84. Iphone 3GS camera‏‎ (12:05, 11 November 2015)
  85. Temperature control‏‎ (12:07, 11 November 2015)
  86. I2C DAC‏‎ (12:08, 11 November 2015)
  87. I2C ADC‏‎ (12:08, 11 November 2015)
  88. I2C splitter‏‎ (12:08, 11 November 2015)
  89. I2C accellerometer‏‎ (12:09, 11 November 2015)
  90. I2C magnetometer‏‎ (12:09, 11 November 2015)
  91. I2C pressure sensor‏‎ (12:10, 11 November 2015)
  92. Raspberry Pi Serial‏‎ (12:11, 11 November 2015)
  93. USB Relay‏‎ (12:15, 11 November 2015)
  94. Installing and booting FriendlyArm mini6410‏‎ (12:18, 11 November 2015)
  95. Blog 13‏‎ (11:21, 19 November 2015)
  96. Blog 16‏‎ (13:04, 23 November 2015)
  97. Blog 17‏‎ (13:05, 23 November 2015)
  98. Blog 15‏‎ (12:04, 25 November 2015)
  99. Motor protocol‏‎ (14:14, 26 November 2015)
  100. Blog 19‏‎ (15:39, 27 November 2015)

View (previous 100 | next 100) (20 | 50 | 100 | 250 | 500)